Location: *
(40.7873°S, 98.7174°E)
Time: 21:39:08
(UTC+00:00)

Cosmos 192 - Pass Details

Date: 26 September 2022
Orbit: 701 x 711 km, 74.0° (Epoch: 05 December)

Event Time Altitude Azimuth Distance (km) Brightness Sun altitude
Rises 12:55:40 0° 287° (WNW) 3,098 8.6 -17.6°
Reaches altitude 10° 12:59:32 10° 256° (WSW) 2,190 8.1 -18.3°
Maximum altitude 13:01:28 12° 233° (SW) 2,051 7.8 -18.6°
Drops below altitude 10° 13:03:25 10° 210° (SSW) 2,201 7.6 -19.0°
Sets 13:07:21 0° 179° (S) 3,131 7.9 -19.7°
